Theta_e
310 307 306 305 303 301 299 298 299 307 307 303 302 301 300 300 300 303 306 312 314 315 315 315 314 313 312 310 310 310 309 307 307 306 306 306 306 307 307 307 307 308 308
307 305 303 302 301 299 296 295 297 303 303 301 300 299 296 296 296 297 298 302 308 309 310 311 311 310 310 309 308 308 307 306 305 305 304 305 305 305 306 306 306 306 306
304 303 302 300 299 296 294 294 296 300 300 297 294 294 294 293 293 293 293 293 294 303 304 305 306 306 306 306 307 306 305 305 304 303 303 303 303 304 304 304 305 305 305
302 301 300 299 298 294 292 292 294 297 296 294 292 291 292 292 291 289 289 289 289 290 296 301 301 302 303 304 304 304 304 304 303 302 302 302 302 303 303 303 303 304 305
299 299 298 296 295 293 291 292 291 295 294 292 291 290 289 289 288 288 286 285 286 286 288 295 297 298 299 301 302 302 303 302 302 301 301 301 301 302 301 302 302 303 303
296 295 295 294 293 291 290 291 291 292 293 291 290 288 287 287 286 285 284 285 284 283 283 286 285 287 296 297 299 300 300 300 300 299 299 300 300 300 301 301 301 302 302
296 294 293 292 292 290 290 290 292 292 289 289 287 286 286 285 284 283 283 282 283 283 282 283 284 284 284 292 294 296 297 298 298 298 298 299 299 299 300 301 301 301 301
295 294 291 290 290 290 290 290 289 287 287 287 287 286 282 284 284 284 283 283 281 282 282 283 283 282 281 282 287 291 294 295 296 296 297 297 298 298 299 300 300 300 301
294 292 291 290 289 289 288 288 288 288 285 285 286 287 283 282 282 283 282 281 280 280 280 282 282 282 281 280 283 284 290 291 293 294 295 296 296 297 298 298 299 300 300
292 292 290 289 289 289 287 286 287 286 285 283 284 285 283 283 279 278 281 281 280 281 279 280 281 280 280 280 283 285 287 289 290 292 293 294 295 296 297 297 298 298 299
291 290 289 289 288 287 286 285 285 285 284 282 282 281 281 280 279 278 276 277 279 279 279 279 279 279 279 279 279 282 287 288 288 289 290 292 293 293 295 295 296 297 298
289 289 289 288 287 286 285 284 284 283 283 282 282 282 281 279 278 277 276 276 276 278 278 279 278 279 279 279 282 284 285 286 287 288 289 290 290 291 292 293 294 295 296
287 287 288 287 286 285 285 284 283 282 282 281 281 280 280 280 280 279 277 276 275 277 278 278 279 279 281 279 279 283 283 285 286 287 288 288 288 289 290 291 292 293 294
287 287 287 286 286 285 285 285 282 281 281 280 279 279 280 279 279 279 277 276 273 274 276 276 277 278 279 279 281 283 279 282 285 286 287 287 287 288 288 290 290 291 291
287 286 286 285 285 285 284 283 282 282 281 280 280 279 279 278 279 278 278 278 275 272 273 274 275 278 279 279 280 278 278 281 284 284 285 285 286 287 287 288 289 289 290
287 286 286 285 285 284 284 283 282 281 281 280 280 279 279 278 278 278 279 277 277 275 273 275 276 276 278 279 280 278 278 281 281 282 283 284 285 285 286 286 287 287 288
287 286 285 285 285 284 283 282 281 280 280 280 280 279 279 279 277 277 277 277 276 276 274 275 275 276 276 276 277 277 278 277 277 280 281 282 283 284 284 284 284 284 284
286 286 285 284 284 283 282 281 280 280 279 279 279 279 278 280 277 277 276 276 276 275 274 272 274 275 275 276 276 275 277 278 277 278 281 281 282 282 282 282 281 281 281
286 285 284 283 282 282 281 280 280 280 279 278 278 278 278 278 277 276 275 275 275 276 274 274 274 275 275 275 275 275 275 275 276 278 279 279 279 279 279 279 278 278 277
284 283 283 282 281 281 280 280 279 278 278 278 279 278 277 277 276 276 276 275 276 275 275 274 274 274 275 275 274 273 272 274 273 274 275 275 276 276 276 276 275 274 275
283 282 281 280 280 280 279 279 279 278 277 277 278 278 278 277 279 279 278 276 276 274 274 274 274 274 274 273 272 273 271 271 270 271 270 270 269 269 270 271 271 272 275
281 281 280 279 278 279 283 284 281 278 278 278 277 277 277 277 277 280 281 282 280 275 275 273 274 273 272 273 272 270 269 266 264 269 267 265 268 266 267 268 271 273 274
280 279 279 279 278 278 283 285 285 280 278 277 277 277 277 278 276 276 278 280 280 280 280 278 274 273 272 272 271 268 267 266 265 266 265 263 266 264 266 267 270 272 273
279 278 278 278 277 278 283 284 285 281 279 278 278 277 276 276 276 275 275 275 275 276 276 276 276 273 273 273 270 269 267 265 265 265 265 259 263 262 263 264 269 270 272
278 278 278 278 277 277 283 284 284 280 279 278 278 277 277 275 277 279 276 275 275 275 278 277 275 274 273 272 271 266 261 260 259 261 262 261 260 260 261 261 264 268 270
279 278 278 277 277 277 282 284 284 280 278 277 277 277 279 275 279 280 276 275 274 274 271 270 268 267 267 266 268 265 263 258 257 254 261 259 259 259 255 257 261 262 262
Wind_Speed
5 4 4 4 4 4 4 4 4 5 8 8 8 9 8 7 8 5 5 16 16 16 15 14 13 13 13 13 14 15 15 16 16 16 16 16 17 18 18 18 18 19 19
5 5 4 4 4 4 4 4 4 5 7 8 9 8 8 7 8 8 6 7 17 16 14 13 14 14 13 12 12 14 15 15 16 17 16 17 17 17 18 18 18 19 20
6 7 5 4 3 4 6 5 5 6 8 7 9 8 7 7 7 8 6 5 6 13 13 13 12 12 12 12 13 13 14 15 16 16 16 16 17 17 18 19 19 20 18
7 5 5 4 4 4 4 4 5 6 6 7 6 5 6 7 8 7 6 5 5 5 9 11 11 12 12 12 12 13 14 15 16 17 16 17 17 17 18 18 20 20 19
6 6 5 4 5 4 4 4 4 4 7 7 7 6 5 5 5 6 7 6 7 5 4 9 11 10 10 12 13 14 15 16 17 17 17 17 17 18 18 18 19 20 18
7 6 5 5 5 5 4 4 6 5 4 7 8 7 5 4 5 5 5 5 5 6 5 5 4 6 12 13 14 16 17 17 17 18 18 18 17 18 19 18 18 18 20
7 6 4 5 4 5 5 5 6 9 5 4 5 4 4 4 5 4 4 4 5 6 6 5 4 4 5 13 13 15 16 17 18 19 19 19 18 19 20 22 20 21 20
7 7 6 5 5 5 5 4 4 4 3 3 3 3 3 1 1 2 3 4 5 4 5 5 5 4 4 4 8 16 17 19 20 19 19 19 19 19 20 22 23 21 22
5 6 6 6 6 4 4 4 5 6 4 3 4 3 3 3 2 2 2 3 4 3 3 4 4 4 5 4 7 11 18 18 20 19 19 20 19 21 23 23 24 25 23
7 6 6 6 6 5 5 4 3 3 5 5 2 5 5 3 3 1 0 1 2 3 3 1 2 3 4 4 9 14 17 17 20 20 20 20 21 21 23 24 25 26 25
7 7 6 7 7 5 5 6 5 6 3 4 3 3 4 4 4 2 1 3 1 0 1 1 2 1 2 4 5 9 17 19 20 18 19 19 20 22 23 24 26 27 27
6 6 6 7 7 7 5 5 6 7 6 6 4 4 3 3 2 3 2 1 2 4 1 1 2 1 1 3 8 14 16 18 18 18 18 19 21 21 23 24 26 26 27
5 7 7 7 6 7 5 6 6 6 5 6 5 4 3 3 3 2 2 1 1 3 3 1 2 0 1 3 4 15 15 18 18 18 19 19 21 22 24 24 26 27 26
5 8 9 9 7 7 6 6 5 5 5 5 7 5 4 3 3 2 3 3 1 2 3 5 0 1 2 3 9 17 6 17 18 20 21 21 22 24 24 25 26 27 27
7 7 10 10 6 7 6 6 3 5 5 4 5 5 4 2 3 3 2 2 3 1 3 2 3 1 5 5 9 7 7 14 20 21 21 22 24 24 25 26 26 27 29
7 8 9 8 6 6 6 5 4 4 5 4 4 5 3 2 3 2 2 2 3 3 3 3 3 3 4 7 9 9 9 17 18 19 21 23 23 25 26 25 27 28 30
8 9 8 7 6 6 5 5 5 5 6 5 4 4 4 3 2 2 2 2 3 3 4 4 2 3 5 5 8 7 7 7 7 19 22 22 25 26 24 27 27 30 30
7 8 7 7 6 5 5 5 5 5 5 5 4 3 2 2 3 3 3 4 3 3 3 7 4 4 5 5 7 7 6 7 8 16 22 24 24 24 25 27 30 28 28
7 7 6 7 6 6 5 5 4 5 4 5 4 4 3 3 2 3 3 3 2 4 4 4 6 4 4 3 6 5 6 8 8 18 20 23 22 21 27 29 27 26 27
9 6 6 6 5 5 5 4 4 4 5 4 4 4 4 5 4 4 3 4 4 4 4 4 5 6 5 5 4 6 8 7 10 11 14 14 18 25 24 23 23 24 27
6 6 6 5 5 4 3 5 5 5 5 5 4 4 5 5 6 6 3 4 4 2 3 4 6 6 6 7 7 6 9 10 11 10 4 8 10 9 9 14 16 24 29
6 6 6 6 5 3 10 11 7 5 5 5 4 5 4 4 5 8 9 10 8 3 5 2 6 4 8 4 5 6 8 10 8 0 11 11 7 6 6 5 22 31 30
6 6 5 5 6 6 10 11 11 5 5 5 5 5 4 4 5 5 6 10 10 11 11 7 5 5 3 5 6 8 8 8 9 10 11 12 7 5 8 9 27 28 25
6 5 5 6 5 5 11 11 9 5 5 5 5 6 5 5 5 5 5 5 6 6 5 3 1 1 3 6 5 7 8 9 8 6 5 8 5 9 10 10 25 22 25
5 5 4 6 6 6 9 11 9 5 5 6 6 6 6 5 7 9 5 5 5 4 1 4 5 8 11 13 11 5 4 7 7 4 3 4 5 13 10 9 8 21 32
5 4 5 6 6 5 8 10 10 3 5 3 5 5 11 7 10 10 4 4 5 2 2 2 4 6 7 7 9 3 4 4 5 5 3 9 7 8 10 3 7 12 11
Wind_Direction
131 116 94 90 91 90 90 89 86 96 94 90 81 84 76 65 59 55 49 55 63 65 62 60 58 56 55 50 45 38 34 28 20 16 8 6 4 359 356 354 350 348 347
126 122 112 100 92 95 95 96 101 98 91 95 85 78 75 68 63 60 51 47 64 62 61 60 56 47 41 38 39 31 24 22 16 8 1 357 356 355 350 347 345 342 351
133 127 119 108 111 100 99 88 79 88 92 90 89 83 81 73 72 66 60 54 45 47 56 53 49 45 41 30 33 23 17 13 9 3 354 351 348 348 346 341 341 341 342
117 113 116 114 115 101 102 97 99 94 91 92 87 72 78 77 74 68 63 53 49 37 26 52 44 39 33 28 27 19 11 9 3 356 350 345 342 340 338 339 334 338 335
112 115 116 114 107 97 94 114 75 102 110 103 98 80 66 75 74 74 63 55 51 44 32 36 40 34 32 27 21 16 7 3 357 352 344 339 337 335 331 330 332 331 336
108 111 114 117 116 105 96 90 105 66 99 111 95 79 63 65 72 64 60 60 50 37 31 34 35 21 36 27 18 13 2 356 350 344 339 332 331 329 327 329 324 321 325
112 108 105 110 108 107 118 119 104 107 74 96 102 76 58 68 74 73 69 58 50 25 31 30 46 44 28 29 15 7 352 349 344 338 337 331 330 325 326 326 324 319 321
117 122 127 125 118 117 112 111 106 118 86 358 122 116 141 294 72 114 77 78 56 29 25 26 80 67 47 27 14 1 351 349 342 338 334 331 327 324 326 324 320 320 322
103 112 112 118 110 99 117 130 132 128 137 44 41 129 112 213 147 178 164 83 71 54 27 32 82 66 48 29 18 360 346 341 337 330 331 328 325 327 325 322 320 318 317
101 97 95 90 96 101 102 105 117 118 122 132 93 49 50 108 159 163 358 101 73 61 46 39 119 89 51 29 2 347 336 334 336 332 331 327 326 327 320 321 318 315 313
106 94 105 101 92 86 86 95 92 92 86 120 115 132 71 56 52 99 44 328 345 32 40 163 145 134 59 20 344 330 338 334 334 333 327 323 327 323 321 320 318 315 312
112 98 106 99 100 89 87 86 76 80 91 88 83 81 114 136 94 86 95 341 315 296 298 153 174 205 359 354 325 337 331 332 333 329 327 329 324 323 321 318 315 311 309
128 125 109 95 99 105 103 96 95 90 86 95 101 91 86 88 114 116 115 155 267 313 316 253 184 283 242 289 304 336 336 331 328 325 329 324 324 323 320 316 317 314 316
136 139 125 106 99 100 91 89 90 96 99 103 104 98 106 101 97 125 132 134 37 285 299 264 261 186 296 307 328 333 310 325 325 326 327 327 325 323 320 320 318 316 314
142 129 109 109 114 105 111 102 109 110 107 109 105 104 107 112 118 111 115 133 156 256 278 299 290 301 343 323 317 318 313 317 324 325 325 325 324 322 322 321 317 318 315
119 130 103 106 119 118 110 124 130 128 119 110 109 109 108 132 127 114 138 166 190 185 246 226 252 287 299 297 309 317 307 315 313 318 322 322 321 322 321 319 318 318 319
140 117 129 134 138 123 150 145 142 142 125 118 114 139 149 144 136 167 178 194 211 187 237 279 246 273 280 281 298 296 298 287 304 314 317 316 319 321 322 319 321 319 316
129 130 147 139 134 153 167 159 159 149 129 145 169 166 174 177 201 191 195 220 224 211 225 269 282 284 275 289 277 285 291 307 306 305 314 319 318 316 315 320 319 318 315
135 145 145 142 158 166 165 170 162 143 164 183 178 192 200 199 236 225 215 233 233 252 227 249 284 282 275 269 283 284 304 303 300 309 313 314 313 315 318 319 318 317 316
152 153 153 149 165 166 170 165 161 171 199 195 201 197 212 217 233 253 253 243 244 241 241 264 275 291 288 289 275 319 319 316 312 308 310 314 316 311 314 313 319 313 308
142 149 141 155 157 173 178 185 191 193 201 206 209 221 224 218 241 244 245 236 240 232 256 262 283 292 289 309 324 338 320 317 315 296 339 314 309 306 304 317 307 304 311
145 146 159 158 172 199 212 208 194 202 202 204 213 226 222 241 263 270 270 278 263 210 244 244 283 283 294 320 343 333 320 321 322 148 332 306 296 304 308 318 306 314 312
151 155 159 166 202 211 222 222 224 192 205 214 217 227 228 218 231 248 277 276 281 281 276 288 298 293 315 355 337 320 313 300 292 310 310 301 331 313 316 310 308 314 315
156 158 185 195 204 222 226 231 233 217 223 226 225 224 226 227 233 238 243 248 250 253 269 279 112 325 310 341 338 313 326 302 292 282 326 288 340 310 315 299 307 309 317
166 187 187 193 204 231 232 233 234 221 236 232 222 215 225 236 238 252 238 246 260 257 341 60 18 350 350 348 337 357 331 332 319 326 309 296 321 312 307 291 287 305 313
185 177 191 201 202 228 239 239 239 217 239 234 225 225 229 222 252 249 227 226 251 223 95 351 335 353 7 346 353 360 326 324 313 323 274 330 324 343 318 274 298 301 294